                               .                   .          .       .     .    .             . 

2006  3 11  10 00 00   10 00 50.3   +78 12 47     0.09661   13.3   127.6/133.4  +40.1  193    -11.2

2006  3 11  11 00 00   10 02 05.7   +78 09 07     0.09734   13.3   125.8/134.6  +42.7  191    -23.4

2006  3 11  12 00 00   10 03 18.0   +78 05 26     0.09807   13.4   124.5/135.8  +44.7  188    -35.2

2006  3 11  13 00 00   10 04 27.8   +78 01 42     0.09880   13.4   123.7/136.8  +46.1  184    -45.9

2006  3 11  14 00 00   10 05 35.5   +77 57 56     0.09954   13.4   123.4/137.7  +46.6  180    -54.5

2006  3 11  15 00 00   10 06 41.6   +77 54 07     0.10027   13.4   123.4/138.4  +46.1  175    -58.9

2006  3 11  16 00 00   10 07 46.5   +77 50 16     0.10101   13.4   123.5/138.8  +44.7  171    -57.4

2006  3 11  17 00 00   10 08 50.5   +77 46 23     0.10174   13.4   123.7/139.0  +42.6  168    -50.8

2006  3 11  18 00 00   10 09 54.1   +77 42 30     0.10248   13.4   123.8/138.9  +39.9  166    -41.0

2006  3 11  19 00 00   10 10 57.4   +77 38 36     0.10322   13.5   123.6/138.7  +36.8  165    -29.6

2006  3 11  20 00 00   10 12 00.7   +77 34 43     0.10396   13.5   123.2/138.3  +33.6  165    -17.6

2006  3 11  21 00 00   10 13 03.8   +77 30 53     0.10469   13.5   122.4/137.8  +30.5  166    - 5.2





軌道と残差:

 

(23187) 2000 PN9

Epoch 2006 Mar. 6.0 TT = JDT 2453800.5                  Nakano

M  16.59471              (2000.0)            P               Q

n   0.39283907     Peri.  293.55590     -0.23128178     -0.95008964

a   1.8464020      Node   164.43989     +0.88943769     -0.11928400

e   0.5896790      Incl.   51.30900     -0.39421992     +0.28827244

P   2.51           H   15.9           G   0.15           U   0

Residuals in seconds of arc 

900802 261  0.4-  0.6+    001019 808  0.0   1.0+    050829 644  0.0   0.1+  

900802 261  1.5+  0.7+    001020 808  0.2+  1.0+    050829 644  0.0   0.1+  

900821 261  0.3-  1.1+    001028 467  0.4-  0.5+    050829 644  0.0   0.1+  

900821 261  1.7+  0.4+    001028 467  0.3-  0.2+    050829 A13  0.5-  0.9-  

000808 704  0.1-  0.6+    001028 467  0.0   0.3+    050829 A13  0.5-  0.6-  

000808 704  0.1+  0.1-    001030 711  0.1-  0.1-    050829 A13  0.4-  0.8-  

000808 704  0.6+  0.9+    001030 711  0.4-  0.5-    050829 A13  0.5-  0.7-  

000808 704  0.3-  0.6-    001030 711  0.1+  1.1-    050829 A13  0.3-  1.1-  

000808 704  0.0   0.4+    001126 428  0.6+  1.1+    050830 A13  0.6-  0.8-  

000808 557  0.1-  0.0     010222 422  0.2+  0.1-    050830 185  0.4+  0.7-  

000808 557  0.2-  0.3+    010222 422  0.0   0.2-    050830 185  0.5+  0.7-  

000808 557  0.0   0.3+    010222 422  0.1+  0.1-    050830 185  0.2+  0.3-  

000809 704  0.2-  0.4+    010223 422  0.3+  0.4-    050830 185  0.3+  0.1-  

000809 704  0.0   1.1+    010223 422  0.1+  0.3-    050830 A13  0.3-  1.0-  

000809 704  0.3+  0.9+    010223 422  0.2+  0.2-    050830 A48  0.1+  0.4+  

000809 704  0.3-  0.0     010226 808  0.7-  1.9+    050830 A48  0.1-  0.4+  

000809 704  0.7-  0.5+    010226 808 (0.5-  2.3+)   050830 A48  0.1-  0.2+  

000809 422  0.3-  0.3+    010226 808  0.5-  1.8-    050830 A48  0.2+  0.5+  

000809 422  1.1+  0.7+    010226 808  1.5-  0.3-    050830 A48  0.1+  0.4+  

000809 422  0.6+  0.7+    010228 808  0.9-  0.1-    050830 A13  0.6-  0.9-  

000809 557  0.1+  0.5+    010228 808  1.2-  0.1+    050831 084  0.4+  0.5+  

000809 557  0.0   0.4+    010228 808  0.8-  0.1-    050831 084  0.5+  0.4+  

000809 557  0.2+  0.1+    010228 808  0.7-  0.2+    050901 A13  0.6-  0.7-  

000809 104 (2.5+  0.6-)   010228 808  0.9-  0.8+    050901 A13  0.7-  1.2-  

000809 104  0.7-  0.4+    010228 808  0.9-  0.8+    050901 A13  0.5-  0.9-  

000809 104  0.7-  0.8+    010228 808  0.4+  1.2+    050901 A13  0.4-  0.9-  

000809 046  0.1-  0.2-    010228 808  0.2-  2.0-    050901 084  0.3-  0.5-  

000809 046  0.0   0.6+    010228 808  0.1-  1.5-    050901 084  0.3-  0.3-  

000809 046  0.0   0.9+    010228 808  0.2-  1.2-    050902 932  0.1+  0.2-  

000809 046  0.2-  0.4+    010228 808  0.9-  2.0+    050902 932  0.1+  0.2-  

000809 046  0.4-  0.8+    010228 808  0.2-  2.0+    050902 932  0.1+  0.1-  

000809 611  1.5-  1.8-    010228 808  0.5-  0.5-    050903 084  0.1-  0.1-  

000809 611  1.2+  0.2+    010228 808  0.6-  0.3+    050903 084  0.1-  0.3-  

000809 611  0.6+  0.2+    010228 808  0.1-  0.5-    050904 084  0.1+  0.3-  

000810 413  0.4-  0.3-    010228 808  0.1+  0.4-    050904 084  0.1+  0.1+  

000810 413  0.1+  0.5+    010228 808  0.0   0.6-    050904 A41  0.0   0.9+  

000810 413  0.0   0.0     010228 808  0.5+  0.4-    050904 A41  0.3+  1.1+  

000810 557  0.7-  0.3+    010302 355  0.2-  0.5+    050904 A41  0.0   0.4+  

000810 557  1.3+  0.8+    010302 355  0.1+  0.6+    050905 J94  0.8-  0.3-  

000810 046  0.6-  0.4+    010302 355  0.0   0.5+    050905 J94  0.0   0.5+  

000810 046  0.9+  0.1+    010302 355  0.2-  0.7+    050905 J94  0.1-  0.3+  

000810 046  0.2-  1.2+    010302 355  0.3-  0.8+    050905 084  0.2-  0.5-  

000810 046  0.4+  0.1-    010302 355  0.0   0.5+    050906 A30  0.3+  0.1+  

000810 046  0.3+  0.4+    010302 349  0.1-  0.1+    050906 A30  0.2+  0.0   

000811 118  0.2-  0.1+    010302 349  0.1+  0.5-    050906 A30  0.3+  0.1+  

000811 118  0.7-  0.2-    010302 349  0.2+  0.2+    050906 A30  0.2+  0.0   

000811 118  0.7-  0.1-    010302 349  0.5-  0.1-    050906 A30  0.2+  0.1-  

000811 734  0.1-  0.2-    010302 349  0.1-  0.2+    050906 A30  0.3+  0.1-  

000811 734  1.3+  0.5+    010303 253  0.0   0.0  R  050909 704  0.2+  0.3+  

000811 734 (1.9-  2.4-)   010304 251  0.0   0.0  R  050909 704  0.3+  0.4-  

000811 704  0.1-  0.6+    010304 349  0.2-  0.7+    050909 704  0.6+  0.4+  

000811 704  0.4+  1.0+    010304 349  0.5-  0.6+    050909 704  0.1+  0.3-  

000811 704  0.1+  0.1+    010304 349  0.5-  1.2+    050909 704  0.5+  0.1-  

000811 704  0.0   0.1-    010304 349  0.3-  0.8+    050909 084  0.1+  0.2+  

000811 413  0.0   1.0+    010304 349  0.0   1.0+    050910 084  0.5-  0.2+  

000811 413  0.1+  0.4+    010305 251  0.0   0.0  R  050910 084  0.1+  0.6+  

000811 151  0.4+  0.5+    010306 113  0.1+  0.2+    050911 699  0.4-  0.2+  

000811 151  0.2+  0.7-    010306 113  0.2+  0.0     050911 699  0.0   0.1+  

000811 151  0.3+  1.9+    010306 113  0.1+  0.3-    050911 699  0.9-  0.8+  

000811 151  0.9+  0.2-    010306 113  0.2+  0.6-    050911 699  0.9-  0.1+  

000811 151 (2.4-  0.3+)   010306 113  0.5+  0.6-    050913 084  0.2+  0.4-  

000811 151  1.0+  0.3-    010306 113  0.8+  0.4-    050913 084  0.5-  0.3-  

000811 163  0.1-  0.6-    010309 349  0.3-  0.3+    050913 A53  0.2-  0.4+  

000811 163  0.3-  0.0     010309 349  0.0   0.2+    050913 A53  0.7+  0.6+  

000811 163  0.1-  0.2-    010309 349  0.1-  0.2+    050913 A53  0.7+  0.4+  

000811 163  1.0-  0.2+    010309 349  0.1+  0.1+    050913 A53  0.1+  0.5+  

000820 587  1.7+  0.6-    010309 349  0.2-  0.1-    050919 240  0.1-  0.2-  

000820 587  1.0+  0.8-    010309 349  0.0   0.3+    050919 240  0.1-  0.0   

000820 587  0.9+  0.8-    010310 349  0.2+  0.0     050919 240  0.1-  0.2+  

000821 046  0.5+  0.2-    010310 349  0.1+  0.2+    050919 240  0.1+  0.1+  

000821 046  0.8+  0.6+    010310 349  0.0   0.2+    050919 084  0.4-  0.2-  

000821 046  0.3+  0.1+    010310 349  0.0   0.2+    050919 240  0.3+  0.0   

000821 046  0.2-  0.8+    010310 349  0.3+  0.0     050919 240  0.3+  0.1+  

000821 046  0.4+  0.6+    010310 349  0.3+  0.2-    050919 240  0.1+  0.1-  

000822 860  0.0   0.4-    010313 704  0.4-  0.0     050919 240  0.3+  0.2-  

000822 860  0.2+  1.1+    010313 704  0.1-  0.1+    050921 H51  0.3+  0.9+  

000822 104  0.1-  0.4+    010313 704  0.2+  0.3+    050921 H51  0.4-  0.1+  

000822 104  0.1-  0.2+    010313 704  1.5-  0.2+    050921 H51 (0.9-  2.2-) 

000822 104  0.2+  1.0+    010313 704  0.4+  0.7+    050921 A13  0.7-  1.2-  

000822 104  0.4+  1.0+    010314 642  0.5-  0.5+    050921 A13  0.4-  1.2-  

000823 402  0.3-  0.0     010314 642  0.0   0.5+    050921 A13  0.3-  1.0-  

000823 402  0.3+  0.1-    010314 642  0.3-  0.6+    050922 084  0.3+  0.2+  

000823 402  0.1-  0.3-    010314 642  0.2+  0.4+    050922 084  0.3+  0.0   

000823 360  0.1-  0.0     010319 750  0.2+  0.2-    050923 699  0.0   0.3+  

000823 360  0.1-  0.0     010319 750  0.4-  0.7+    050923 699  0.0   0.2+  

000823 360  0.4-  0.1-    010319 750  0.3-  0.7+    050923 699  0.1-  0.7+  

000823 104  1.8-  1.4-    010320 049  1.0+  0.8-    050923 699  0.3+  0.7+  

000824 118  0.0   0.1+    010320 049  1.1+  0.8-    050923 E19  0.4-  0.2+  

000824 118  0.7+  0.1+    010320 049  1.1+  0.7-    050923 E19  0.3+  0.5-  

000824 658  0.6-  0.5+    010321 642  0.1-  0.2+    050923 E19  0.3+  0.0   

000824 658  0.3+  0.2+    010321 642  0.0   0.3+    050924 084  0.1-  0.5-  

000824 658  0.0   0.3+    010321 642  0.0   0.9+    050925 084  0.1-  0.5-  

000824 540  0.0   0.1+    010321 642  0.3-  0.2+    051001 699  0.1-  0.1+  

000824 540  0.3+  0.0     010321 642  0.1-  0.1+    051001 699  0.2+  0.2+  

000825 118  0.3+  0.4+    010321 642  0.3-  0.2+    051001 699  0.4+  0.4+  

000825 118  0.2+  0.6+    010322 642  0.4-  0.5+    051001 699  0.4+  0.6+  

000825 860  0.6+  0.3-    010322 642  0.2-  1.0+    051004 699  0.1+  0.0   

000825 860  0.3+  0.5+    010322 642  0.5-  0.7-    051004 699  0.5-  0.1+  

000825 658  0.2+  0.4+    010322 642  0.7-  0.5+    051004 699  0.1+  0.4+  

000825 658  0.5+  0.3+    010322 642  0.5-  0.2+    051005 704  0.4-  0.2+  

000825 658  0.5+  0.4+    010323 049  0.9+  0.1-    051005 704  0.2-  0.3-  

000828 118  0.2-  0.2+    010323 049  0.7+  0.1-    051005 704  0.3-  0.0   

000828 118  0.3-  0.1+    010323 049  0.9+  0.1-    051005 704  0.3-  0.0   

000828 658  0.3+  0.4+    010326 726  0.1-  0.5+    051005 704  0.4-  0.1+  

000828 658  0.5+  0.1+    010326 726  0.4+  0.8+    060307 300  0.4-  0.4-  

